Terug naar catalogus

NIMBUS 2 DEB

ActiefSSO
NORAD 42439·DEBRIS·🇺🇸 United States

Gelanceerd May 15, 1966 vanaf Vandenberg Space Force Base

Loading…

Volgende Passages (komende 24 uur)

TLE

VerouderdSource: Space-Track

Epoch: Aug 25, 2026, 19:35 UTC

1 42439U 66040BS  26237.81647934  .00001780  00000-0  28273-2 0  9990
2 42439 100.2263  96.4380 0042898 326.5961  33.2468 13.50642841532416

Volg NIMBUS 2 DEB in realtime met AllMySat

Download on the App Store